Flag for Philippines Weather past 2 weeks in Mabalacat, Philippines

Now
86 °F

Partly sunny.


Feels Like: 93 °F
Forecast: 76 / 91 °F
Wind: 3 mph from Northeast

Location: Clarkfield Pampanga International Airport

Current Time: Apr 22, 2015 at 10:44:29 AM

Latest Report: Apr 22, 2015 at 10:00 AM


Visibility: N/A

Pressure: 29.95 "Hg

Humidity: 66%

Dew point: 73 °F

Location of MabalacatLocation

Historic Weather in Mabalacat — Graph

°F

Mabalacat temperature yesterday

Maximum temperature yesterday: 91 °F (at 12:00 PM)
Minimum temperature yesterday: 77 °F (at 9:00 PM)
Average temperature yesterday: 83 °F

Past Weeks' High & Low Weather Summary

 TemperatureHumidityPressure
High95 °F (Apr 16, 2:00 PM)100% (Apr 13, 1:00 AM)30.04 "Hg (Apr 13, 1:00 AM)
Low73 °F (Apr 12, 5:00 AM)34% (Apr 12, 3:00 PM)29.80 "Hg (Apr 19, 4:00 PM)
Average82 °F69%29.92 "Hg
* Reported Apr 7 9:00 AM — Apr 22 9:00 AM, Mabalacat, Weather by CustomWeather, © 2015

Note: Actual official high and low records may vary slightly from our data, if they occured in-between our weather recording intervals... More about our weather records

Advertising

Mabalacat weather history for previous 24 hours

 ConditionsComfort  
Time TempWeatherWind HumidityBarometerVisibility
9:00 AM
Wed, Apr 22
84 °FPartly sunny.5 mph70%29.95 "HgN/A
8:00 AM84 °FPartly sunny.1 mph70%29.95 "HgN/A
7:00 AM81 °FPartly sunny.1 mph79%29.92 "HgN/A
6:00 AM77 °FPartly sunny.2 mph94%29.92 "HgN/A
5:00 AM77 °FPassing clouds.3 mph94%29.89 "HgN/A
4:00 AM79 °FPassing clouds.5 mph89%29.89 "HgN/A
1:00 AM79 °FPassing clouds.3 mph89%29.92 "HgN/A
12:00 AM79 °FPassing clouds.5 mph84%29.92 "HgN/A
9:00 PM
Tue, Apr 21
77 °FMostly cloudy.2 mph100%29.95 "Hg6 mi
8:00 PM79 °FMostly cloudy.2 mph94%29.92 "Hg6 mi
7:00 PM79 °FMostly cloudy.7 mph94%29.92 "Hg6 mi
3:00 PM88 °FThundershowers. More clouds than sun.7 mph62%29.83 "Hg5 mi
2:00 PM90 °FThunderstorms. Partly sunny.5 mph59%29.83 "Hg6 mi
1:00 PM91 °FPartly sunny.5 mph59%29.86 "HgN/A
12:00 PM91 °FBroken clouds.5 mph56%29.89 "HgN/A
11:00 AM88 °FBroken clouds.5 mph66%29.92 "HgN/A
10:00 AM86 °FPartly sunny.2 mph75%29.95 "HgN/A
Weather by CustomWeather, © 2015

See weather overviewHow to use our weather pages